Weather History for Monett, MO

Change the Weather History Date:

Sunday, December 30, 2012

  Actual Average (KJLN) Record (KJLN)
Temperature  
Mean Temperature 32 °F 35 °F  
Max Temperature 41 °F 45 °F 70 °F (1951)
Min Temperature 23 °F 25 °F -9 °F (1983)
Degree Days  
Heating Degree Days 33 30  
Month to date heating degree days 831  
Since 1 July heating degree days 1588  
Cooling Degree Days 0 0  
Month to date cooling degree days 0  
Year to date cooling degree days 1698  
Moisture  
Dew Point 18 °F    
Average Humidity 56    
Maximum Humidity 74    
Minimum Humidity 36    
Precipitation  
Precipitation 0.00 in 0.08 in 1.20 in (2006)
Month to date precipitation 2.75  
Year to date precipitation 46.48  
Sea Level Pressure  
Sea Level Pressure 30.30 in    
Wind  
Wind Speed 8 mph (South)    
Max Wind Speed 17 mph    
Max Gust Speed 23 mph    
Visibility 10 miles    
Events      
T = Trace of Precipitation, MM = Missing Value Source: NWS Daily Summary

Daily Weather History Graph

Daily Weather History Graph

Search for Another Location

Airport:

Trip Planner

Search our weather history database for the weather conditions in past years. The results will help you decide how hot, cold, wet, or windy it might be!

Date:

Astronomy

Dec. 30, 2012 Rise Set
Actual Time 7:28 AM CST 5:09 PM CST
Civil Twilight 6:59 AM CST 5:38 PM CST
Nautical Twilight 6:27 AM CST 6:10 PM CST
Astronomical Twilight 5:55 AM CST 6:42 PM CST
Moon 7:37 PM CST (12/30) 8:41 AM CST (12/30)
Length of Visible Light 10h 38m
Length of Day
9h 40m
Waning Gibbous, 95% of the Moon is Illuminated
Dec 30
Waning Gibbous
Jan 4
Last Quarter
Jan 11
New
Jan 18
First Quarter
Jan 26
Full

Hourly Weather History & Observations

Time (CST) Temp. Windchill Dew Point Humidity Pressure Visibility Wind Dir Wind Speed Gust Speed Precip Events Conditions
12:15 AM 24.8 °F 17.9 °F 15.8 °F 69% 30.36 in 10.0 mi SSW 5.8 mph - N/A   Clear
12:35 AM 24.8 °F 17.9 °F 15.8 °F 69% 30.36 in 10.0 mi SSW 5.8 mph - N/A   Clear
12:55 AM 24.8 °F 17.9 °F 15.8 °F 69% 30.35 in 10.0 mi South 5.8 mph - N/A   Clear
1:15 AM 24.8 °F 16.9 °F 15.8 °F 69% 30.36 in 10.0 mi SSW 6.9 mph - N/A   Clear
1:35 AM 24.8 °F 16.9 °F 15.8 °F 69% 30.37 in 10.0 mi SSW 6.9 mph - N/A   Clear
1:55 AM 24.8 °F 17.9 °F 15.8 °F 69% 30.36 in 10.0 mi SSW 5.8 mph - N/A   Clear
2:15 AM 24.8 °F 17.9 °F 15.8 °F 69% 30.35 in 10.0 mi South 5.8 mph - N/A   Clear
2:35 AM 24.8 °F 19.1 °F 15.8 °F 69% 30.36 in 10.0 mi South 4.6 mph - N/A   Clear
2:55 AM 24.8 °F 16.9 °F 15.8 °F 69% 30.37 in 10.0 mi SSW 6.9 mph - N/A   Clear
3:15 AM 24.8 °F 17.9 °F 15.8 °F 69% 30.38 in 10.0 mi SSW 5.8 mph - N/A   Clear
3:35 AM 24.8 °F 17.9 °F 15.8 °F 69% 30.38 in 10.0 mi South 5.8 mph - N/A   Clear
3:55 AM 24.8 °F 17.9 °F 15.8 °F 69% 30.38 in 10.0 mi South 5.8 mph - N/A   Clear
4:15 AM 24.8 °F 19.1 °F 15.8 °F 69% 30.37 in 10.0 mi South 4.6 mph - N/A   Clear
4:35 AM 24.8 °F 19.1 °F 15.8 °F 69% 30.36 in 10.0 mi South 4.6 mph - N/A   Clear
4:55 AM 23.0 °F 15.8 °F 15.8 °F 74% 30.36 in 10.0 mi South 5.8 mph - N/A   Clear
5:15 AM 24.8 °F 19.1 °F 15.8 °F 69% 30.36 in 10.0 mi South 4.6 mph - N/A   Clear
5:35 AM 23.0 °F 17.0 °F 15.8 °F 74% 30.37 in 10.0 mi South 4.6 mph - N/A   Clear
5:55 AM 23.0 °F 15.8 °F 15.8 °F 74% 30.37 in 10.0 mi South 5.8 mph - N/A   Clear
6:15 AM 24.8 °F 17.9 °F 17.6 °F 74% 30.37 in 10.0 mi South 5.8 mph - N/A   Clear
6:55 AM 23.0 °F 17.0 °F 15.8 °F 74% 30.37 in 10.0 mi SSE 4.6 mph - N/A   Clear
7:15 AM 24.8 °F 19.1 °F 17.6 °F 74% 30.36 in 10.0 mi South 4.6 mph - N/A   Clear
7:35 AM 24.8 °F 17.9 °F 17.6 °F 74% 30.36 in 10.0 mi South 5.8 mph - N/A   Clear
7:55 AM 26.6 °F 19.1 °F 17.6 °F 69% 30.36 in 10.0 mi South 6.9 mph - N/A   Clear
8:15 AM 28.4 °F 22.2 °F 19.4 °F 69% 30.36 in 10.0 mi South 5.8 mph - N/A   Clear
8:35 AM 30.2 °F 23.4 °F 19.4 °F 64% 30.36 in 10.0 mi South 6.9 mph - N/A   Clear
8:55 AM 32.0 °F 24.8 °F 21.2 °F 64% 30.38 in 10.0 mi South 8.1 mph - N/A   Clear
9:15 AM 32.0 °F 24.2 °F 23.0 °F 69% 30.38 in 10.0 mi South 9.2 mph - N/A   Clear
9:35 AM 33.8 °F 26.4 °F 23.0 °F 65% 30.39 in 10.0 mi SSW 9.2 mph - N/A   Clear
9:55 AM 33.8 °F 25.3 °F 23.0 °F 65% 30.39 in 10.0 mi South 11.5 mph - N/A   Clear
10:15 AM 35.6 °F 27.5 °F 23.0 °F 60% 30.39 in 10.0 mi South 11.5 mph - N/A   Clear
10:35 AM 35.6 °F 26.6 °F 23.0 °F 60% 30.38 in 10.0 mi South 13.8 mph - N/A   Clear
10:55 AM 37.4 °F 29.8 °F 23.0 °F 56% 30.37 in 10.0 mi South 11.5 mph - N/A   Clear
11:15 AM 37.4 °F 28.9 °F 21.2 °F 52% 30.35 in 10.0 mi SSW 13.8 mph - N/A   Clear
11:35 AM 39.2 °F 31.6 °F 19.4 °F 45% 30.34 in 10.0 mi SSW 12.7 mph - N/A   Clear
11:55 AM 39.2 °F 31.6 °F 19.4 °F 45% 30.32 in 10.0 mi South 12.7 mph - N/A   Clear
12:15 PM 41.0 °F 32.8 °F 17.6 °F 39% 30.32 in 10.0 mi SSW 16.1 mph 19.6 mph N/A   Clear
12:35 PM 41.0 °F 32.8 °F 15.8 °F 36% 30.32 in 10.0 mi South 16.1 mph - N/A   Clear
12:55 PM 41.0 °F 33.1 °F 17.6 °F 39% 30.31 in 10.0 mi South 15.0 mph - N/A   Clear
1:15 PM 41.0 °F 33.1 °F 17.6 °F 39% 30.31 in 10.0 mi SSW 15.0 mph - N/A   Clear
1:35 PM 41.0 °F 32.8 °F 15.8 °F 36% 30.30 in 10.0 mi SSW 16.1 mph - N/A   Clear
1:55 PM 41.0 °F 33.1 °F 17.6 °F 39% 30.28 in 10.0 mi SSW 15.0 mph - N/A   Clear
2:15 PM 41.0 °F 32.8 °F 17.6 °F 39% 30.29 in 10.0 mi South 16.1 mph 21.9 mph N/A   Clear
2:35 PM 41.0 °F 32.8 °F 15.8 °F 36% 30.28 in 10.0 mi SSW 16.1 mph - N/A   Clear
2:55 PM 41.0 °F 32.5 °F 17.6 °F 39% 30.28 in 10.0 mi South 17.3 mph - N/A   Clear
3:15 PM 41.0 °F 33.9 °F 17.6 °F 39% 30.27 in 10.0 mi South 12.7 mph 23.0 mph N/A   Clear
3:35 PM 41.0 °F 33.1 °F 15.8 °F 36% 30.28 in 10.0 mi South 15.0 mph - N/A   Clear
3:55 PM 39.2 °F 32.5 °F 15.8 °F 39% 30.27 in 10.0 mi South 10.4 mph 16.1 mph N/A   Clear
4:15 PM 37.4 °F 30.8 °F 17.6 °F 45% 30.27 in 10.0 mi South 9.2 mph - N/A   Clear
4:35 PM 37.4 °F 31.4 °F 17.6 °F 45% 30.26 in 10.0 mi South 8.1 mph - N/A   Clear
4:55 PM 35.6 °F 29.9 °F 17.6 °F 48% 30.25 in 10.0 mi South 6.9 mph - N/A   Clear
5:15 PM 35.6 °F 29.9 °F 19.4 °F 52% 30.25 in 10.0 mi South 6.9 mph - N/A   Clear
5:35 PM 35.6 °F 29.2 °F 19.4 °F 52% 30.25 in 10.0 mi South 8.1 mph - N/A   Clear
5:55 PM 35.6 °F 28.6 °F 17.6 °F 48% 30.25 in 10.0 mi South 9.2 mph - N/A   Clear
6:15 PM 35.6 °F 29.2 °F 17.6 °F 48% 30.23 in 10.0 mi South 8.1 mph - N/A   Clear
6:35 PM 35.6 °F 29.2 °F 17.6 °F 48% 30.23 in 10.0 mi South 8.1 mph - N/A   Clear
6:55 PM 35.6 °F 29.9 °F 19.4 °F 52% 30.23 in 10.0 mi SSE 6.9 mph - N/A   Clear
7:15 PM 35.6 °F 28.6 °F 19.4 °F 52% 30.22 in 10.0 mi SSE 9.2 mph - N/A   Clear
7:35 PM 35.6 °F 29.2 °F 19.4 °F 52% 30.21 in 10.0 mi SSE 8.1 mph - N/A   Clear
7:55 PM 35.6 °F 29.2 °F 19.4 °F 52% 30.21 in 10.0 mi South 8.1 mph - N/A   Clear
8:15 PM 35.6 °F 28.6 °F 19.4 °F 52% 30.20 in 10.0 mi SSE 9.2 mph - N/A   Clear
8:35 PM 33.8 °F 26.4 °F 19.4 °F 56% 30.20 in 10.0 mi SSE 9.2 mph - N/A   Clear
8:55 PM 35.6 °F 28.0 °F 17.6 °F 48% 30.20 in 10.0 mi SSE 10.4 mph - N/A   Clear
9:15 PM 33.8 °F 26.4 °F 19.4 °F 56% 30.20 in 10.0 mi SSE 9.2 mph - N/A   Clear
9:35 PM 33.8 °F 25.8 °F 19.4 °F 56% 30.20 in 10.0 mi South 10.4 mph - N/A   Clear
9:55 PM 35.6 °F 27.1 °F 17.6 °F 48% 30.18 in 10.0 mi South 12.7 mph - N/A   Clear
10:15 PM 35.6 °F 28.0 °F 17.6 °F 48% 30.19 in 10.0 mi South 10.4 mph 17.3 mph N/A   Clear
10:35 PM 35.6 °F 28.0 °F 17.6 °F 48% 30.20 in 10.0 mi South 10.4 mph - N/A   Clear
10:55 PM 35.6 °F 28.0 °F 17.6 °F 48% 30.18 in 10.0 mi South 10.4 mph 16.1 mph N/A   Clear
11:15 PM 35.6 °F 28.0 °F 19.4 °F 52% 30.19 in 10.0 mi South 10.4 mph - N/A   Clear
11:35 PM 35.6 °F 28.6 °F 19.4 °F 52% 30.20 in 10.0 mi SSW 9.2 mph - N/A   Clear
11:55 PM 35.6 °F 29.2 °F 19.4 °F 52% 30.20 in 10.0 mi SSW 8.1 mph - N/A   Clear